Flag for Romania Weather past 2 weeks in Iasi, Romania

Now
82 °F

Passing clouds.


Feels Like: 82 °F
Forecast: 58 / 92 °F
Wind: 7 mph from South

Location: Iasi Airport

Current Time: Aug 20, 2014 at 12:52:04 PM

Latest Report: Aug 20, 2014 at 11:30 AM


Visibility: N/A

Pressure: 30.01 "Hg

Humidity: 42%

Dew point: 57 °F

Location of IasiLocation

Historic Weather in Iasi — Graph

°F

Iasi temperature yesterday

Maximum temperature yesterday: 84 °F (at 3:00 PM)
Minimum temperature yesterday: 54 °F (at 6:00 AM)
Average temperature yesterday: 72 °F

Past Weeks' High & Low Weather Summary

 TemperatureHumidityPressure
High95 °F (Aug 14, 3:00 PM)100% (Aug 6, 3:00 AM)30.04 "Hg (Aug 6, 3:00 AM)
Low54 °F (Aug 18, 5:00 AM)31% (Aug 14, 7:00 PM)29.74 "Hg (Aug 15, 2:00 AM)
Average75 °F65%29.92 "Hg
* Reported Aug 5 11:00 AM — Aug 20 11:30 AM, Iasi, Weather by CustomWeather, © 2014

Note: Actual official high and low records may vary slightly from our data, if they occured in-between our weather recording intervals... More about our weather records

Advertising

Iasi weather history for previous 24 hours

 ConditionsComfort  
Time TempWeatherWind HumidityBarometerVisibility
11:30 AM
Aug 20
82 °FPassing clouds.7 mph42%30.01 "HgN/A
11:00 AM79 °FPassing clouds.5 mph51%30.01 "HgN/A
10:30 AM75 °FPassing clouds.7 mph57%30.01 "HgN/A
10:00 AM73 °FPassing clouds.7 mph61%30.01 "HgN/A
9:30 AM72 °FSunny.7 mph65%30.01 "Hg10 mi
8:30 AM68 °FSunny.7 mph69%30.01 "Hg10 mi
8:00 AM64 °FSunny.5 mph78%30.01 "Hg10 mi
7:30 AM63 °FSunny.5 mph77%30.01 "Hg10 mi
7:00 AM61 °FClear.5 mph83%30.01 "Hg10 mi
6:30 AM61 °FClear.5 mph83%30.01 "Hg10 mi
6:00 AM61 °FClear.5 mph83%29.98 "Hg10 mi
5:30 AM63 °FClear.5 mph77%29.98 "Hg10 mi
5:00 AM63 °FClear.5 mph77%29.98 "Hg10 mi
4:00 AM63 °FClear.5 mph73%29.98 "Hg10 mi
3:00 AM64 °FClear.2 mph68%29.98 "Hg10 mi
2:00 AM64 °FClear.5 mph68%29.98 "Hg10 mi
1:00 AM66 °FPassing clouds.7 mph64%29.98 "HgN/A
12:00 AM70 °FClear.2 mph53%29.98 "Hg10 mi
11:00 PM
Aug 19
72 °FClear.5 mph50%29.98 "Hg10 mi
10:00 PM73 °FPassing clouds.5 mph47%29.98 "HgN/A
9:00 PM73 °FSunny.5 mph47%29.98 "Hg10 mi
8:30 PM75 °FSunny.5 mph41%29.98 "Hg10 mi
8:00 PM75 °FSunny.5 mph41%29.95 "Hg10 mi
7:30 PM81 °FPassing clouds.5 mph32%29.95 "HgN/A
7:00 PM81 °FPassing clouds.7 mph32%29.95 "HgN/A
6:30 PM82 °FPassing clouds.7 mph32%29.95 "HgN/A
6:00 PM82 °FPassing clouds.7 mph32%29.95 "HgN/A
5:30 PM84 °FPassing clouds.7 mph31%29.98 "HgN/A
5:00 PM84 °FPassing clouds.7 mph31%29.98 "HgN/A
4:30 PM84 °FPassing clouds.9 mph31%29.98 "HgN/A
4:00 PM84 °FPassing clouds.9 mph33%29.98 "HgN/A
3:30 PM82 °FPassing clouds.9 mph35%29.98 "HgN/A
3:00 PM84 °FPassing clouds.7 mph35%29.98 "HgN/A
2:30 PM82 °FPassing clouds.7 mph37%29.98 "HgN/A
2:00 PM82 °FPassing clouds.12 mph37%30.01 "HgN/A
1:30 PM82 °FPassing clouds.7 mph32%30.01 "HgN/A
1:00 PM82 °FPassing clouds.7 mph32%30.01 "HgN/A
12:30 PM81 °FPassing clouds.9 mph34%30.01 "HgN/A
12:00 PM79 °FSunny.5 mph42%30.01 "Hg10 mi
Weather by CustomWeather, © 2014

See weather overviewHow to use our weather pages